Погода в Вахонине

Россия / Тверская область     56°36′37″N   36°37′10″E
темп.,
°C
ветер,
м/с
пор.,
м/с
влажн.,
%
обл.,
%
осадки,
мм/ч
давл.,
гПа
погр.,
м
16 апреля, пт
пт1600:00+8св61485100 0.0 1020593
03:00+6всв61489100 0.0 1020557
06:00+6всв51388100 0.0 1020544
09:00+8всв51081100 0.0 1021570
12:00+12всв5861100 0.0 1022880
15:00+15всв5955100 0.0 10211216
18:00+14всв61161100 0.0 10211127
21:00+9всв61378100 0.0 1022741
17 апреля, сб
сб1700:00+9всв51382100 0.1 1022674
03:00+7всв5118399 0.1 1023555
06:00+6всв4118573 0.0 1024457
09:00+8всв5107286 0.0 1024577
12:00+13всв695679 0.0 1023980
15:00+15всв695076 0.2 10231337
18:00+13всв61051100 0.0 10221102
21:00+9всв5135113 0.0 1023778
18 апреля, вс
вс1800:00+7всв5145951 0.0 1023636
03:00+6всв513698 0.0 1023551
06:00+4всв4127559 0.0 1024536
09:00+7всв5116197 0.0 1024816
12:00+10в6948100 0.0 10231410
15:00+12в5843100 0.0 10231851
18:00+10юв4959100 0.0 10241530
21:00+7вюв31176100 0.0 1025605
19 апреля, пн
пн1900:00+6в4108599 0.1 1025997
03:00+6св3885100 0.1 1025719
06:00+6всв4983100 0.0 10251025
09:00+5всв5989100 0.3 1025927
12:00+6всв51082100 0.0 1025787
15:00+6всв51084100 0.3 10251099
18:00+6в51289100 0.4 10251164
21:00+7в51179100 0.5 10251075
20 апреля, вт
вт2000:00+6в51173100 0.0 1023851
03:00+4в41170100 0.0 1023605
06:00+3всв41081100 0.0 1022593
09:00+4в51183100 0.0 1020690
12:00+4в51284100 0.0 1018737
15:00+4всв61483100 0.0 1015773
18:00+4всв81790100 3.3 1010962
21:00+5в71991100 8.1 10071278